Total_Precipitation_Accumulation
0.00 0.00 0.00 0.00 0.00 0.00 0.00 0.00 0.00 0.00 0.00 0.00 0.00 0.00 0.00 0.00 0.00 0.00 0.01 0.02 0.10 0.23 0.20 0.61 1.11 0.72 0.80 0.77 0.47 0.36 0.23 0.14 0.11 0.02 0.00 0.00 0.00 0.00 0.00 0.00 0.01 0.02 0.02 0.01
0.00 0.00 0.00 0.00 0.00 0.00 0.00 0.00 0.00 0.00 0.00 0.00 0.00 0.00 0.00 0.00 0.00 0.00 0.00 0.05 0.07 0.14 0.28 0.60 0.81 0.85 0.61 0.66 0.56 0.54 0.28 0.22 0.24 0.07 0.00 0.00 0.00 0.00 0.00 0.00 0.03 0.05 0.04 0.02
0.00 0.00 0.00 0.00 0.00 0.00 0.00 0.00 0.00 0.00 0.00 0.00 0.00 0.00 0.00 0.00 0.00 0.00 0.00 0.02 0.10 0.07 0.33 0.31 0.59 0.85 0.70 0.36 0.36 0.61 0.49 0.26 0.25 0.26 0.06 0.00 0.00 0.00 0.00 0.00 0.02 0.06 0.08 0.05
0.00 0.00 0.00 0.00 0.00 0.00 0.00 0.00 0.00 0.00 0.00 0.00 0.00 0.00 0.00 0.00 0.00 0.00 0.00 0.00 0.03 0.05 0.36 0.74 0.37 0.38 0.84 0.90 0.38 0.60 0.83 0.44 0.24 0.19 0.19 0.01 0.00 0.00 0.00 0.00 0.00 0.02 0.05 0.07
0.01 0.00 0.00 0.01 0.00 0.00 0.00 0.00 0.00 0.00 0.00 0.00 0.00 0.00 0.00 0.00 0.00 0.00 0.00 0.00 0.00 0.03 0.18 0.64 0.73 0.39 0.38 1.10 1.07 0.98 0.94 0.83 0.41 0.17 0.12 0.05 0.00 0.00 0.00 0.00 0.01 0.04 0.03 0.03
0.02 0.00 0.01 0.02 0.00 0.00 0.01 0.01 0.01 0.00 0.00 0.03 0.00 0.00 0.00 0.00 0.00 0.00 0.00 0.00 0.00 0.00 0.28 0.36 0.46 0.73 0.67 0.49 0.92 1.38 1.58 1.09 0.69 0.33 0.11 0.03 0.01 0.00 0.00 0.00 0.02 0.06 0.06 0.04
0.05 0.01 0.00 0.00 0.05 0.04 0.05 0.08 0.21 0.14 0.08 0.04 0.00 0.00 0.00 0.00 0.00 0.00 0.00 0.00 0.00 0.05 0.17 0.88 0.32 0.52 0.84 0.94 0.45 0.63 1.50 1.41 0.79 0.35 0.18 0.05 0.01 0.00 0.00 0.01 0.02 0.03 0.04 0.03
0.21 0.22 0.08 0.07 0.06 0.08 0.05 0.08 0.20 0.15 0.05 0.01 0.00 0.00 0.00 0.00 0.00 0.00 0.00 0.00 0.00 0.07 0.27 0.61 0.77 0.39 0.77 1.03 0.95 0.39 0.63 0.96 1.01 0.55 0.22 0.09 0.03 0.02 0.02 0.02 0.02 0.02 0.03 0.02
0.16 0.18 0.11 0.15 0.13 0.16 0.19 0.13 0.07 0.12 0.09 0.04 0.00 0.00 0.00 0.00 0.00 0.00 0.00 0.00 0.00 0.02 0.29 0.35 0.41 0.65 0.60 1.01 1.16 0.78 0.49 0.72 0.64 0.74 0.38 0.15 0.07 0.06 0.03 0.01 0.01 0.04 0.05 0.03
0.17 0.23 0.10 0.16 0.20 0.17 0.14 0.12 0.14 0.27 0.20 0.10 0.02 0.01 0.03 0.01 0.00 0.00 0.00 0.00 0.00 0.00 0.05 0.65 0.35 0.28 0.80 0.87 1.35 1.24 0.74 0.59 0.76 0.57 0.55 0.23 0.08 0.05 0.06 0.03 0.00 0.00 0.03 0.02
0.28 0.18 0.11 0.21 0.41 0.25 0.16 0.26 0.16 0.14 0.12 0.11 0.03 0.15 0.21 0.08 0.01 0.01 0.00 0.00 0.00 0.00 0.02 0.07 0.59 0.23 0.67 0.96 1.04 1.40 1.34 0.90 0.59 0.57 0.42 0.33 0.14 0.07 0.06 0.04 0.02 0.01 0.02 0.01
0.30 0.19 0.13 0.32 0.25 0.16 0.10 0.15 0.16 0.09 0.05 0.07 0.10 0.32 0.17 0.10 0.05 0.01 0.01 0.02 0.01 0.00 0.01 0.00 0.24 0.40 0.38 0.79 0.82 0.87 1.26 1.68 0.94 0.55 0.42 0.31 0.26 0.11 0.07 0.05 0.02 0.03 0.03 0.02
0.29 0.20 0.25 0.28 0.40 0.34 0.40 0.24 0.16 0.10 0.07 0.08 0.16 0.33 0.15 0.08 0.07 0.08 0.05 0.04 0.04 0.03 0.02 0.04 0.10 0.25 0.36 0.24 0.61 0.63 0.41 0.94 1.32 1.09 0.68 0.37 0.41 0.25 0.09 0.06 0.04 0.02 0.03 0.02
0.22 0.29 0.54 0.74 1.08 0.63 0.41 0.25 0.14 0.11 0.12 0.11 0.24 0.25 0.12 0.10 0.11 0.14 0.15 0.12 0.12 0.10 0.06 0.04 0.03 0.09 0.24 0.36 0.32 0.68 0.41 0.42 0.72 0.89 0.90 0.57 0.43 0.33 0.16 0.07 0.05 0.04 0.01 0.01
0.26 0.39 0.39 0.63 0.63 0.22 0.27 0.27 0.08 0.09 0.12 0.32 0.87 0.37 0.21 0.23 0.23 0.23 0.32 0.32 0.51 0.38 0.32 0.19 0.16 0.13 0.18 0.22 0.16 0.48 0.67 0.59 0.37 0.49 0.45 0.53 0.46 0.37 0.19 0.13 0.05 0.03 0.02 0.01
0.19 0.43 0.54 0.68 0.49 0.22 0.14 0.16 0.11 0.14 0.43 0.78 0.56 0.31 0.31 0.40 0.28 0.25 0.38 0.52 0.47 0.53 0.58 0.41 0.26 0.26 0.27 0.24 0.26 0.27 0.60 0.49 0.36 0.29 0.32 0.35 0.39 0.40 0.27 0.12 0.06 0.02 0.01 0.01
0.19 0.27 0.43 0.99 0.69 0.19 0.27 0.87 0.66 0.63 0.78 0.88 0.80 0.68 0.34 0.29 0.31 0.34 0.44 0.58 0.55 0.70 0.93 0.72 0.56 0.46 0.26 0.31 0.35 0.28 0.45 0.73 0.45 0.38 0.25 0.29 0.33 0.36 0.29 0.16 0.07 0.02 0.01 0.00
0.26 0.20 0.30 0.62 0.77 0.55 0.93 0.79 0.69 1.04 0.92 0.91 0.85 0.70 0.58 0.45 0.48 0.45 0.70 0.65 0.48 0.62 1.27 1.39 0.97 0.71 0.50 0.30 0.47 0.62 0.56 0.65 0.74 0.53 0.20 0.20 0.39 0.43 0.38 0.25 0.11 0.04 0.01 0.01
0.21 0.20 0.31 0.79 0.54 0.45 0.30 0.61 0.87 0.84 0.77 0.81 0.99 0.93 0.71 0.34 0.45 0.65 0.92 1.18 0.55 0.55 0.89 1.13 1.10 0.78 0.60 0.39 0.49 0.69 0.91 0.59 0.67 0.77 0.34 0.15 0.40 0.50 0.60 0.43 0.18 0.07 0.02 0.01
0.21 0.30 0.33 0.40 0.31 0.52 0.88 0.58 0.25 0.38 0.24 0.37 0.94 1.14 0.99 0.57 0.82 1.09 0.92 1.14 0.82 0.73 0.62 0.70 0.79 1.02 0.64 0.70 0.49 0.55 0.87 1.15 0.94 0.76 0.77 0.41 0.43 0.52 0.57 0.66 0.41 0.19 0.07 0.03
0.11 0.15 0.18 0.20 0.15 0.68 0.87 0.31 0.06 0.25 0.55 0.53 0.67 0.80 0.75 0.98 1.44 1.35 1.08 1.08 0.72 0.58 0.38 0.33 0.35 0.73 0.85 0.82 0.71 0.58 0.73 1.02 1.27 1.27 1.10 0.75 0.51 0.50 0.54 0.59 0.59 0.41 0.28 0.10
0.19 0.16 0.19 0.13 0.14 0.60 0.68 0.41 0.61 0.85 0.59 0.41 0.28 0.40 0.64 0.92 0.98 0.99 0.83 0.77 0.75 0.62 0.43 0.31 0.27 0.50 1.45 0.98 1.03 1.17 1.00 1.08 0.84 0.99 0.85 0.76 0.56 0.43 0.57 0.51 0.50 0.43 0.33 0.25
0.55 0.35 0.29 0.46 0.99 1.10 0.88 1.05 0.88 0.64 0.47 0.28 0.17 0.11 0.17 0.28 0.39 0.58 0.63 0.59 0.55 0.69 0.71 0.71 0.60 0.38 1.02 1.48 1.22 1.58 1.38 1.29 1.17 0.84 1.08 1.02 0.76 0.57 0.52 0.64 0.43 0.36 0.32 0.19
0.20 0.09 0.21 0.45 0.73 0.55 0.51 0.45 0.50 0.54 0.47 0.24 0.11 0.07 0.02 0.04 0.07 0.18 0.37 0.36 0.31 0.39 0.48 0.63 1.06 0.80 0.87 1.08 1.72 1.15 1.38 1.36 1.81 1.54 1.21 1.35 1.42 1.19 0.74 0.81 0.75 0.65 0.40 0.28
0.12 0.09 0.12 0.23 0.25 0.22 0.18 0.28 0.38 0.38 0.32 0.22 0.06 0.02 0.01 0.00 0.01 0.02 0.06 0.15 0.17 0.16 0.18 0.35 0.94 0.93 0.81 0.90 1.32 1.40 0.97 1.16 1.59 2.20 1.79 1.59 1.37 1.58 1.57 1.27 1.14 0.90 0.75 0.56
0.07 0.09 0.07 0.24 0.14 0.13 0.19 0.13 0.16 0.13 0.13 0.16 0.10 0.01 0.01 0.00 0.00 0.00 0.00 0.00 0.03 0.05 0.04 0.04 0.02 0.05 0.12 0.20 0.43 0.61 0.93 0.74 1.05 1.40 2.04 2.18 2.24 1.78 1.61 1.42 1.39 1.55 1.47 1.40